• Join FlightAware (Why Join?)
  • Login
  • US Flag 
02:39AM EST


 

Airport Tracker/Info


-or-


 

Live Flight TrackerFlight Track Log ✈ EJA328 ✈ 28-Mar-2014 ✈ KSJC - KRNO

Flight Track Log - Related Links

Times and Time Zones

All times are in EDT time to prevent confusion due to time zone crossing. See the EJA328 flight status page for this flight to view local times or setup timezone preferences in your user account.

Time Position Orientation Groundspeed Altitude Reporting Facility
EDT Latitude Longitude Course Direction KTS MPH feet Rate Location/Type
02:52PM 37.3609 -121.9280 138° Southeast 149 171 400  Level FlightAware ADS-B
02:52PM 37.3540 -121.9200 137° Southeast 172 198 1,000 3,730 Climbing FlightAware ADS-B
02:52PM 37.3396 -121.9040 140° Southeast 186 214 2,700 4,971 Climbing FlightAware ADS-B
02:53PM 37.3252 -121.8890 141° Southeast 209 241 3,900 4,059 Climbing FlightAware ADS-B
02:53PM 37.3125 -121.8760 138° Southeast 209 241 5,000 3,000 Climbing FlightAware ADS-B
02:53PM 37.3031 -121.8650 137° Southeast 213 245 5,600 2,211 Climbing FlightAware ADS-B
02:54PM 37.2890 -121.8490 137° Southeast 224 258 6,400 2,333 Climbing FlightAware ADS-B
02:54PM 37.2777 -121.8370 144° Southeast 228 262 7,000 2,571 Climbing FlightAware ADS-B
02:54PM 37.2707 -121.8350 165° South 223 257 7,300 3,600 Climbing FlightAware ADS-B
02:54PM 37.2646 -121.8350 187° South 217 250 7,600 4,667 Climbing FlightAware ADS-B
02:54PM 37.2581 -121.8380 202° Southwest 212 244 8,000 3,200 Climbing FlightAware ADS-B
02:54PM 37.2510 -121.8430 210° Southwest 211 243 8,400 2,880 Climbing FlightAware ADS-B
02:55PM 37.2362 -121.8540 211° Southwest 212 244 9,200 3,000 Climbing FlightAware ADS-B
02:55PM 37.2272 -121.8610 220° Southwest 218 251 9,600 1,800 Climbing FlightAware ADS-B
02:55PM 37.2231 -121.8680 228° Southwest 219 252 9,800 800 Climbing FlightAware ADS-B
02:55PM 37.2218 -121.8720 245° Southwest 222 255 9,800 1,333 Level FlightAware ADS-B
02:55PM 37.2202 -121.8810 259° West 226 260 10,000 2,143 Climbing FlightAware ADS-B
02:55PM 37.2193 -121.8930 268° West 232 267 10,300 2,211 Climbing FlightAware ADS-B
02:55PM 37.2206 -121.9060 284° West 236 272 10,700 2,526 Climbing FlightAware ADS-B
02:56PM 37.2274 -121.9210 295° West 240 276 11,100 2,308 Climbing FlightAware ADS-B
02:56PM 37.2281 -121.9220 312° West 245 282 11,200 1,333 Climbing FlightAware ADS-B
02:56PM 37.2367 -121.9300 330° Northwest 254 292 11,500 2,211 Climbing FlightAware ADS-B
02:56PM 37.2470 -121.9340 351° North 264 304 11,900 2,870 Climbing FlightAware ADS-B
02:56PM 37.2704 -121.9350 357° North 269 310 12,600 2,204 Climbing FlightAware ADS-B
02:57PM 37.3119 -121.9390 356° North 277 319 13,700 1,967 Climbing FlightAware ADS-B
02:57PM 37.3474 -121.9420 356° North 284 327 14,600 1,579 Climbing FlightAware ADS-B
02:57PM 37.3597 -121.9434 356° North 300 345 14,700 353 Climbing FlightAware ADS-B
02:58PM 37.4003 -121.9470 356° North 320 368 14,800 105 Climbing FlightAware ADS-B
02:58PM 37.4487 -121.9530 355° North 349 402 14,800 667 Level FlightAware ADS-B
02:59PM 37.4719 -121.9548 356° North 345 397 15,300 1,935 Climbing FlightAware ADS-B
02:59PM 37.5002 -121.9580 356° North 339 390 15,800 1,529 Climbing FlightAware ADS-B
02:59PM 37.5493 -121.9630 355° North 337 388 16,600 982 Climbing FlightAware ADS-B
03:00PM 37.5792 -121.9640 North 350 403 16,700 400 Climbing FlightAware ADS-B
03:00PM 37.5951 -121.9600 17° North 366 421 16,800 222 Climbing FlightAware ADS-B
03:00PM 37.6224 -121.9390 38° Northeast 391 450 16,800  Level FlightAware ADS-B
03:01PM 37.6677 -121.8980 35° Northeast 401 461 16,800  Level FlightAware ADS-B
03:01PM 37.7251 -121.8470 35° Northeast 410 472 16,800  Level FlightAware ADS-B
03:02PM 37.7768 -121.8010 35° Northeast 415 478 16,800  Level FlightAware ADS-B
03:02PM 37.8308 -121.7530 35° Northeast 417 480 16,800  Level FlightAware ADS-B
03:03PM 37.8848 -121.7050 35° Northeast 417 480 16,800  Level FlightAware ADS-B
03:04PM 37.9378 -121.6570 35° Northeast 417 480 16,800  Level FlightAware ADS-B
03:04PM 37.9906 -121.6090 35° Northeast 417 480 16,800  Level FlightAware ADS-B
03:05PM 38.0400 -121.5650 35° Northeast 417 480 16,800  Level FlightAware ADS-B
03:05PM 38.0888 -121.5210 36° Northeast 418 481 16,800  Level FlightAware ADS-B
03:06PM 38.1387 -121.4760 36° Northeast 418 481 16,800  Level FlightAware ADS-B
03:06PM 38.1828 -121.4360 36° Northeast 418 481 16,800  Level FlightAware ADS-B
03:07PM 38.2487 -121.3760 36° Northeast 418 481 16,800  Level FlightAware ADS-B
03:07PM 38.2910 -121.3380 36° Northeast 418 481 16,800  Level FlightAware ADS-B
03:08PM 38.3712 -121.2650 36° Northeast 418 481 16,800  Level FlightAware ADS-B
03:13PM 38.8103 -120.8611 36° Northeast 417 480 16,800 34 Level FlightAware ADS-B (KMHR)
03:14PM 38.9032 -120.7749 36° Northeast 416 479 17,000 141 Climbing FlightAware ADS-B (KSAC)
03:15PM 38.9968 -120.6877 36° Northeast 416 479 17,100 37 Climbing FlightAware ADS-B (KSAC)
03:17PM 39.1542 -120.5406 36° Northeast 418 481 17,100 -522 Level FlightAware ADS-B (KSAC)
03:21PM 39.5795 -120.0443 49° Northeast 382 440 13,700 -878 Descending FlightAware ADS-B
03:22PM 39.6333 -119.9667 49° Northeast 373 429 12,200 -2,019 Descending Northern Cal TRACON
03:23PM 39.7000 -119.9000 38° Northeast 323 372 10,100 -1,600 Descending Northern Cal TRACON
03:24PM 39.7000 -119.8167 90° East 280 322 9,000 -661 Descending Northern Cal TRACON
03:25PM 39.6500 -119.7667 142° Southeast 190 219 8,800 -1,000 Descending Northern Cal TRACON
03:26PM 39.6167 -119.7667 180° South 140 161 7,000 -1,450 Descending Northern Cal TRACON
03:27PM 39.5833 -119.7667 180° South 143 165 5,900 -1,041 Descending Northern Cal TRACON
03:28PM 39.5333 -119.7667 180° South 144 166 4,900 -984 Descending Northern Cal TRACON
03:30PM 39.4991 -119.7681 180° South  Level Estimated
03:37PM 39.4991 -119.7681 North  Level Estimated
03:38PM 39.4991 -119.7681 180° South  Level Estimated